This demonstration page uses our WeatherBlox Daily Observations layout. Learn more.

Left ArrowRight Arrow

40.97296, -117.73568

Hourly Observations for February 15, 2019

Temp ( °F °C ) Dew Point ( °F °C ) Humidity (%) Winds ( mph kmh ) Pressure ( in mb ) Visibility ( mi km ) Precip ( " mm )
12:56 am 00:56 Clear 37 2.8 22 -5.6 54 54 S 15 24 29.57 1001 10 16 0.00 0.00
1:56 am 01:56 Clear 35 1.7 23 -5 61 61 S 16 26 29.63 1004 10 16 0.00 0.00
2:56 am 02:56 Clear 38 3.3 19 -7.2 46 46 S 20 31 29.62 1003 10 16 0.00 0.00
3:56 am 03:56 Mostly Clear 34 1.1 22 -5.6 61 61 SSE 12 19 29.62 1003 10 16 0.00 0.00
4:56 am 04:56 Cloudy 39 3.9 18 -7.8 43 43 SSW 18 30 29.60 1002 10 16 0.00 0.00
5:56 am 05:56 Cloudy 38 3.3 19 -7.2 46 46 SSW 9 15 29.63 1003 10 16 0.00 0.00
6:56 am 06:56 Cloudy 32 0 27 -2.8 82 82 W 15 24 29.69 1006 10 16 0.00 0.00
7:18 am 07:18 Cloudy with Light Snow 30 -1 27 -3 86 86 W 16 26 29.83 1010 2 3 0.00 0.00
7:22 am 07:22 Cloudy with Light Snow 31 -0.6 27 -2.8 85 85 W 13 20 29.82 1010 1 1 0.00 0.03
7:31 am 07:31 Cloudy with Snow 31 -0.6 28 -2.2 89 89 W 10 17 29.84 1010 0 0 0.01 0.25
7:49 am 07:49 Mostly Cloudy with Heavy Snow 30 -1.1 28 -2.2 92 92 W 12 19 29.85 1011 0 0 0.04 1.02
7:56 am 07:56 Mostly Cloudy with Snow 30 -1.1 28 -2.2 92 92 WSW 12 19 29.75 1007 0 0 0.05 1.27
8:29 am 08:29 Mostly Cloudy with Light Snow 30 -1 28 -2 93 93 WSW 13 20 29.86 1011 1 1 0.00 0.00
8:37 am 08:37 Cloudy with Light Snow 31 -0.6 28 -2.2 89 89 WSW 13 20 29.85 1011 1 2 0.04 1.02
8:43 am 08:43 Cloudy with Light Snow 31 -0.6 28 -2.2 89 89 W 13 20 29.86 1011 2 3 0.04 1.02
8:52 am 08:52 Cloudy with Light Snow 30 -1 27 -3 86 86 W 15 24 29.87 1011 6 10 0.04 1.02
8:56 am 08:56 Cloudy with Light Snow 32 0 26 -3.3 79 79 WSW 17 28 29.76 1008 7 11 0.04 1.02
9:56 am 09:56 Cloudy 35 1.7 25 -3.9 67 67 SW 17 28 29.78 1008 10 16 0.00 0.03
10:56 am 10:56 Mostly Cloudy 37 2.8 22 -5.6 54 54 SW 16 26 29.78 1009 10 16 0.00 0.00
11:56 am 11:56 Cloudy 38 3.3 22 -5.6 52 52 W 16 26 29.78 1008 10 16 0.00 0.00
12:56 pm 12:56 Cloudy 39 3.9 21 -6.1 48 48 WSW 18 30 29.77 1008 10 16 0.00 0.00
1:56 pm 13:56 Mostly Cloudy 37 2.8 20 -6.7 50 50 WSW 12 19 29.76 1008 10 16 0.00 0.00
2:56 pm 14:56 Partly Cloudy 38 3.3 17 -8.3 43 43 WSW 16 26 29.75 1008 10 16 0.00 0.00
3:56 pm 15:56 Cloudy 36 2.2 19 -7.2 50 50 WSW 9 15 29.78 1009 10 16 0.00 0.00
4:56 pm 16:56 Partly Cloudy 35 1.7 20 -6.7 54 54 WSW 8 13 29.80 1009 10 16 0.00 0.00
5:56 pm 17:56 Clear 34 1.1 20 -6.7 56 56 SW 8 13 29.80 1009 10 16 0.00 0.00
6:56 pm 18:56 Clear 29 -1.7 20 -6.7 69 69 Calm 29.84 1011 10 16 0.00 0.00
7:56 pm 19:56 Clear 29 -1.7 21 -6.1 72 72 S 7 11 29.85 1011 10 16 0.00 0.00
8:56 pm 20:56 Clear 26 -3.3 19 -7.2 75 75 WSW 6 9 29.86 1011 10 16 0.00 0.00
9:56 pm 21:56 Clear 30 -1.1 20 -6.7 66 66 SSW 6 9 29.84 1010 10 16 0.00 0.00
10:56 pm 22:56 Mostly Cloudy 29 -1.7 21 -6.1 72 72 SSW 7 11 29.86 1011 10 16 0.00 0.00
11:56 pm 23:56 Mostly Clear 28 -2.2 21 -6.1 75 75 S 5 7 29.86 1011 10 16 0.00 0.00

Powered by Vaisala Xweather